Weather History for Pian Rosa, Italy

Change the Weather History Date:

Thursday, October 17, 2013

  Actual Average Record
Temperature  
Mean Temperature 26 °F -  
Max Temperature 31 °F 26 °F 37 °F (2005)
Min Temperature 21 °F 17 °F 6 °F (2004)
Degree Days  
Heating Degree Days 39    
Moisture  
Dew Point -5 °F    
Average Humidity 34    
Maximum Humidity 93    
Minimum Humidity 4    
Precipitation  
Precipitation 0.00 in - - ()
Sea Level Pressure  
Sea Level Pressure 30.25 in    
Wind  
Wind Speed 19 mph ()    
Max Wind Speed 37 mph    
Max Gust Speed 48 mph    
Visibility 3.9 miles    
Events Fog    
Averages and records for this station are not official NWS values.
T = Trace of Precipitation, MM = Missing Value Source: Averaged Metar Reports

Daily Weather History Graph

Daily Weather History Graph

Search for Another Location

Airport:

Trip Planner

Search our weather history database for the weather conditions in past years. The results will help you decide how hot, cold, wet, or windy it might be!

Date:

Astronomy

Oct. 17, 2013 Rise Set
Actual Time 7:48 AM CEST 6:39 PM CEST
Civil Twilight 7:18 AM CEST 7:09 PM CEST
Nautical Twilight 6:43 AM CEST 7:44 PM CEST
Astronomical Twilight 6:09 AM CEST 8:18 PM CEST
Moon 5:47 PM CEST (10/17) 5:59 AM CEST (10/17)
Length of Visible Light 11h 51m
Length of Day
10h 50m
Waxing Gibbous, 97% of the Moon is Illuminated
Oct 17
Waxing Gibbous
Oct 19
Full
Oct 27
Last Quarter
Nov 3
New
Nov 10
First Quarter

Hourly Weather History & Observations

Time (CEST) Temp. Windchill Dew Point Humidity Pressure Visibility Wind Dir Wind Speed Gust Speed Precip Events Conditions
12:55 AM 30.2 °F 19.3 °F 23.0 °F 75% 30.21 in 2.5 mi North 15.0 mph 33.4 mph N/A   Mist
1:55 AM 30.2 °F 22.6 °F 17.6 °F 60% 30.21 in 2.5 mi NNW 8.1 mph 23.0 mph N/A   Mist
2:00 AM 31 °F - 18 °F 47%  in 1 mi NNW 8.1 mph - -   Mist
2:55 AM 28.4 °F 15.1 °F 15.8 °F 59% 30.21 in 3.7 mi NNE 20.7 mph 38.0 mph N/A   Scattered Clouds
3:55 AM 26.6 °F 11.4 °F 23.0 °F 86% 30.18 in 3.7 mi NNE 25.3 mph 38.0 mph N/A   Scattered Clouds
4:55 AM 26.6 °F 11.7 °F 24.8 °F 93% 30.21 in 0.2 mi NNE 24.2 mph 41.4 mph N/A Fog Light Freezing Fog
5:00 AM 26 °F - 24 °F 88%  in 0 mi NNE 24.2 mph - - Fog Heavy Fog
5:55 AM 24.8 °F 7.1 °F 21.2 °F 86% 30.21 in 0.5 mi NNE 33.4 mph 48.3 mph N/A Fog Light Freezing Fog
6:55 AM 23.0 °F 5.4 °F 15.8 °F 74% 30.18 in 6.2 mi NE 29.9 mph 43.7 mph N/A   Mist
7:55 AM 21.2 °F 1.4 °F 14.0 °F 74% 30.18 in 6.2 mi NE 36.8 mph - N/A   Partly Cloudy
8:00 AM 22 °F - 15 °F 62%  in 47 mi NE 36.8 mph - -   Partly Cloudy
8:55 AM 23.0 °F 4.1 °F -0.4 °F 36% 30.21 in - NE 35.7 mph - N/A   Clear
9:55 AM 24.8 °F 6.4 °F -7.6 °F 24% 30.21 in - NE 36.8 mph - N/A   Clear
10:55 AM 24.8 °F 7.3 °F -14.8 °F 17% 30.24 in 6.2 mi NE 32.2 mph - N/A   Unknown
11:55 AM 26.6 °F 11.1 °F -14.8 °F 16% 30.24 in - NNE 26.5 mph - N/A   Clear
12:55 PM 26.6 °F 10.6 °F -16.6 °F 14% 30.27 in - NNE 28.8 mph 43.7 mph N/A   Clear
1:55 PM 24.8 °F 8.4 °F -16.6 °F 16% 30.27 in - NE 27.6 mph 40.3 mph N/A   Clear
2:00 PM 26 °F - -17 °F 5%  in 31 mi NE 27.6 mph - -  
2:55 PM 26.6 °F 11.1 °F -18.4 °F 13% 30.27 in - NE 26.5 mph 38.0 mph N/A   Clear
3:55 PM 26.6 °F 11.7 °F -18.4 °F 13% 30.27 in - NE 24.2 mph - N/A   Clear
4:55 PM 26.6 °F 14.3 °F -20.2 °F 12% 30.27 in - NNE 16.1 mph - N/A   Clear
5:00 PM 26 °F - -20 °F 4%  in 31 mi NNE 16.1 mph - -   Clear
5:55 PM 24.8 °F 13.4 °F -22.0 °F 12% 30.30 in - NNE 12.7 mph - N/A   Clear
6:55 PM 28.4 °F 16.6 °F -22.0 °F 10% 30.30 in - North 16.1 mph 32.2 mph N/A   Clear
7:55 PM 26.6 °F 13.4 °F -22.0 °F 11% 30.30 in - ENE 18.4 mph - N/A   Clear
8:00 PM 27 °F - -22 °F 4%  in 12 mi ENE 18.4 mph - -   Clear
8:55 PM 30.2 °F 20.2 °F -20.2 °F 10% 30.30 in - North 12.7 mph 34.5 mph N/A   Clear
9:55 PM 30.2 °F 22.6 °F -20.2 °F 10% 30.30 in - NNW 8.1 mph - N/A   Clear
10:55 PM 30.2 °F 22.6 °F -20.2 °F 10% 30.30 in - NNW 8.1 mph 21.9 mph N/A   Clear
11:00 PM 31 °F - -20 °F 4%  in 6 mi NNW 8.1 mph - -  
11:55 PM 28.4 °F 21.2 °F -22.0 °F 10% 30.30 in - ENE 6.9 mph - N/A   Clear